    Observer details:
    585 Kyiv comet station.  Observer A. Baransky.  0.7-m f/4 reflector + CCD.
    703 Catalina Sky Survey.  Observer R. A. Kowalski.  Measurers B. M. Africano, 
       E. J. Christensen, G. A. Farneth, D. C. Fuls, A. R. Gibbs, A. D. Grauer, H. 
       Groeller, R. A. Kowalski, S. M. Larson, G. J. Leonard, T. A. Pruyne, D. 
       Rankin, R. L. Seaman, F. C. Shelly.  0.68-m Schmidt + 10K CCD.
    A17 Guidestar Observatory, Weinheim.  Observers M. Emmerich, S. Melchert.  
        0.36-m f/6 Schmidt-Cassegrain + CCD.
    A44 Altschwendt.  Observer W. Ries.  0.45-m f/4.5 reflector + CCD.
    C95 SATINO Remote Observatory, Haute Provence.  Observer J. Jahn.  0.60-m f/3.2 
       Newtonian reflector + CCD.
    F51 Pan-STARRS 1, Haleakala.  Observers J. Bulger, K. Chambers, T. Lowe, E. 
       Magnier, A. Schultz, M. Willman.  Measurers S. Chastel, J. Fairlamb, M. 
       Huber, Y. Ramanjooloo, R. Wainscoat, R. Weryk.  1.8-m Ritchey-Chretien + CCD.
    G34 Oberfrauendorf.  Observer T. Felber.  0.35-m f/6.3 Schmidt-Cassegrain + CCD.
    H36 Sandlot Observatory, Scranton.  Observer G. Hug.  0.56-m reflector + CCD.
    I52 Steward Observatory, Mt. Lemmon Station.  Observer H. Groeller.  Measurers 
       B. M. Africano, E. J. Christensen, G. A. Farneth, D. C. Fuls, A. R. Gibbs, 
       A. D. Grauer, H. Groeller, R. A. Kowalski, S. M. Larson, G. J. Leonard, T. 
       A. Pruyne, D. Rankin, R. L. Seaman, F. C. Shelly.  1.0-m reflector + CCD.
    I93 St Pardon de Conques.  Observer F. Losse.  0.40-m f/3.7 reflector + CCD.
    J69 North Observatory, Clanfield.  Observer D. Briggs.  0.41-m f/4.5 Newtonian 
       reflector + CCD.
    J95 Great Shefford.  Observer P. Birtwhistle.  0.41-m f/6.3 Schmidt-Cassegrain 
       + CCD.
    K61 Rokycany Observatory.  Observer M. Adamovsky.  0.51-m f/6.8 reflector + CCD.
    K88 GINOP-KHK, Piszkesteto.  Observer K. Sarneczky.  0.60-m Schmidt + CCD.
    L01 Visnjan Observatory, Tican.  Observer K. Korlevic.  1.0-m f/2.9 reflector + 
       CCD.
    X31 Galileo Galilei Observatory, Oro Verde.  Observer C. Fornari.  0.35-m f/11 
       Schmidt-Cassegrain + CCD.
    Z43 Landehen.  Observer C. Ratinaud.  0.25-m f/4.7 reflector + CCD + GPS-tagged 
       video.
    Z80 Northolt Branch Observatory.  Observer G. Wells.  Measurer D. Bamberger.  
        0.25-m f/8.0 Ritchey-Chretien + CCD.
    
    Orbital elements:
    2019 SD                                                  Earth MOID = 0.0002 AU
    Epoch 2019 Apr. 27.0 TT = JDT 2458600.5                 Veres
    M 324.62828              (2000.0)            P               Q
    n   0.29303829     Peri.  335.48942     +0.82146218     +0.57003211
    a   2.2448456      Node   349.71124     -0.50707065     +0.71711946
    e   0.5664123      Incl.    5.21225     -0.26091999     +0.40100258
    P   3.36           H   25.5           G   0.15           U   6
    Residuals in seconds of arc
    190917 F51  0.6-  0.5-    190918 A44  0.4+  0.5+    190918 585  1.5-  0.4-
    190917 F51  0.7+  0.5+    190918 K88  0.5-  0.2+    190918 585  0.8-  0.4+
    190918 703  0.9-  0.1-    190918 K88  0.3+  0.2+    190918 585  1.3-  1.2+
    190918 703  0.4-  0.2-    190918 A44  0.5+  0.1+    190918 585  1.1-  0.7+
    190918 703  1.2-  0.2-    190918 K88  0.4-  0.3-    190918 I93  0.3+  0.2+
    190918 I52  0.4+  0.1+    190918 K88  0.4+  0.8+    190918 I93  0.1-  0.0
    190918 I52  0.0   0.2-    190918 K88  0.3+  0.6+    190918 I93  0.1+  0.3+
    190918 I52  0.2+  0.1-    190918 L01  0.5-  0.3-    190919 J95  0.2-  0.2+
    190918 I52  0.4+  0.1-    190918 L01  0.3-  0.2+    190919 J95  0.2-  0.1-
    190918 I52  0.2+  0.1+    190918 L01  0.4+  0.6+    190919 J95  0.4+  0.2-
    190918 I52  0.0   0.1-    190918 G34  0.5+  0.2-    190919 J95  0.1-  0.1-
    190918 I52  0.5+  0.1+    190918 Z43  0.3-  0.5-    190919 X31  0.9+  0.4+
    190918 I52  0.3+  0.1-    190918 G34  0.6+  0.1+    190919 X31  0.8+  0.4-
    190918 K61  0.3+  0.4+    190918 G34  0.2-  0.1+    190919 X31  0.9+  0.3-
    190918 K61  0.3+  0.1+    190918 Z43  0.4-  0.5-    190919 X31  0.4+  0.4-
    190918 K61  0.3+  0.1-    190918 Z43  0.3-  0.7+    190919 X31  0.3-  0.1+
    190918 K61  0.4+  0.4-    190918 J69  0.3-  0.0     190919 X31  0.4-  0.2-
    190918 A17  0.6-  1.0-    190918 J69  0.3-  0.1-    190919 H36  0.3+  0.1+
    190918 A44  0.4+  0.6+    190918 J69  0.2+  0.1-    190919 H36  0.1-  0.1-
    190918 K61  0.9+  1.0-    190918 C95  0.4+  0.1+    190919 I52  0.2-  0.1-
    190918 K61  1.1+  0.6-    190918 Z80  0.6-  0.4+    190919 H36  0.0   0.1+
    190918 A17  0.3-  0.1-    190918 J69  0.1-  0.3+    190919 I52  0.6-  0.3-
    190918 A44  0.2-  0.5-    190918 C95  0.3+  0.0     190919 I52  0.4-  0.2-
    190918 A17  0.1-  0.2-    190918 C95  0.0   0.5-    190919 I52  0.5-  0.3-
    190918 A17  0.3-  0.4+    190918 Z80  0.4+  0.3-    190919 H36  0.9+  0.2+
    190918 A44  0.3+  0.6+    190918 Z80  0.1+  0.3+
    
    Ephemeris:
    2019 SD                  a,e,i = 2.24, 0.57, 5                   q = 0.9733
    Date    TT    R. A. (2000) Decl.     Delta      r    Elong.  Phase     V
    2019 08 20    13 57 35.7 -30 24 05   0.1581  0.9763    72.5    98.6    25.0
    ...
    2019 09 04    14 34 15.7 -31 09 34   0.07424 0.9810    66.1   109.9    24.0
    ...
    2019 09 12    15 59 29.5 -28 48 38   0.03014 0.9993    75.1   103.2    21.7
    ...
    2019 09 18    21 39 11.8 +12 09 16   0.01742 1.0197   146.8    32.7    18.1
    2019 09 19    22 30 10.4 +18 33 08   0.02106 1.0235   152.8    26.6    18.4
    2019 09 20    23 06 47.8 +22 22 50   0.02555 1.0276   154.3    25.1    18.8
    ...
    2019 09 26    00 34 29.1 +28 30 32   0.05823 1.0545   151.7    26.8    20.6
    ...
    2019 10 04    01 02 59.0 +29 04 41   0.1060  1.0970   154.2    23.3    21.9
    ...
    2019 10 19    01 17 10.0 +27 42 36   0.2047  1.1922   161.6    15.3    23.3
    
    A. U. Tomatic                (C) Copyright 2019 MPC           M.P.E.C. 2019-S12
    


    Read MPEC 2019-S11 Read MPEC 2019-S13


    MPEC number:

    Enter an MPEC number in one of the following forms:

    • 1997-B01 (the full form)
    • J97B01 (the packed version of the full form)
    • B01 (the abbreviated form)